Regional Weather Roundup
Issued by NWS

Home | Current Version | Previous Version | Graphics & Text | Print | Product List | Glossary On
Versions: 1 2 3 4 5 6 7 8 9 10 11 12 13 14 15 16 17 18 19 20 21 22 23 24 25 26 27 28 29 30 31 32 33 34 35 36 37 38 39 40 41 42 43 44 45 46 47 48 49 50
000
ASUS43 KMKX 180921
RWRWI

WISCONSIN REGIONAL WEATHER ROUNDUP
NATIONAL WEATHER SERVICE MILWAUKEE/SULLIVAN WI
400 AM CDT SAT APR 18 2015

NOTE: "FAIR" INDICATES FEW OR NO CLOUDS BELOW 12,000 FEET WITH NO
SIGNIFICANT WEATHER AND/OR OBSTRUCTIONS TO VISIBILITY.

WIZ001-002-006>008-014>016-023>028-181000-
NORTHWEST WISCONSIN

CITY           SKY/WX    TMP DP  RH WIND       PRES   REMARKS
SUPERIOR ARPT  CLEAR     41  33  74 E12       30.19R
ASHLAND        CLEAR     39  32  76 NE8       30.19R WCI  33
HAYWARD        CLEAR     47  30  51 NE12G23   30.13R
SIREN          CLEAR     51  27  39 NE8       30.11S
CUMBERLAND     CLEAR     48  28  46 NE8       30.09R
RICE LAKE      CLEAR     48  30  48 NE5       30.11R
CHETEK         CLEAR     52  31  44 NE5       30.10R
LADYSMITH      CLEAR     51  29  44 NE10      30.11R
EAU CLAIRE     CLEAR     45  31  58 NE8       30.06R
MENOMONIE      CLEAR     45  33  63 N6        30.07R
NEW RICHMOND   CLEAR     42  32  67 NE5       30.07S
OSCEOLA        CLEAR     49  31  50 NE7       30.10F
$$

WIZ003>005-009-010-017-018-181000-
NORTH CENTRAL WISCONSIN

CITY           SKY/WX    TMP DP  RH WIND       PRES   REMARKS
MANITOWISH WTR CLEAR     42  33  70 NE6       30.13R
ARBOR VITAE    CLEAR     45  33  62 N6        30.13R
WOODRUFF       CLEAR     45  33  62 N6        30.13R
RHINELANDER    CLEAR     47  30  51 N6        30.12R
EAGLE RIVER    CLEAR     42  30  62 NE8       30.12R
LAND O LAKES   CLEAR     42  32  67 N8        30.14R
PHILLIPS       CLEAR     47  31  55 NE10      30.11R
TOMAHAWK       CLEAR     46  30  52 CALM      30.12R
MEDFORD        CLEAR     48  30  50 NE8       30.08R
MERRILL        CLEAR     48  30  49 NE3       30.09R
$$

WIZ029-030-035-036-043>047-181000-
CENTRAL WISCONSIN

CITY           SKY/WX    TMP DP  RH WIND       PRES   REMARKS
WAUSAU         CLEAR     52  29  41 N5        30.07R
MOSINEE        CLEAR     50  30  46 N10       30.08R
MARSHFIELD     CLEAR     55  28  35 NE14      30.05R
STEVENS POINT  CLEAR     36  33  88 N7        30.06R WCI  31
WAUPACA        CLEAR     44  39  83 CALM      30.03S
WAUTOMA        CLEAR     42  41  97 CALM      30.04R
WISC RAPIDS    CLEAR     43  33  68 NE3       30.05R
CAMP DOUGLAS   CLEAR     40  40 100 SW3       30.05R
$$

WIZ011>013-019>022-031-037>040-048>050-181000-
NORTHEAST WISCONSIN

CITY           SKY/WX    TMP DP  RH WIND       PRES   REMARKS
ANTIGO         CLEAR     45  31  59 N8        30.09R
SHAWANO        CLEAR     54  36  52 N15G21    30.07R
OCONTO         CLEAR     48  36  62 N9G16     30.07R
STURGEON BAY   CLEAR     46  34  61 N20       30.09R
GREEN BAY      CLEAR     45  41  86 N10G16    30.05R
MANITOWOC      PTCLDY    49  41  74 CALM      30.03R
APPLETON       CLEAR     52  36  54 N10       30.03R
CLINTONVILLE   CLEAR     50  37  62 N8        30.06R
OSHKOSH        PTCLDY    52  42  69 W3        30.02R
$$

WIZ032>034-041-042-053>061-181000-
SOUTHWEST WISCONSIN

CITY           SKY/WX    TMP DP  RH WIND       PRES   REMARKS
LA CROSSE      CLEAR     51  45  79 SE5       30.04R
SPARTA         CLEAR     37  36  96 CALM      30.06R
VIROQUA        CLEAR     57  35  43 NE5       30.05S
BOSCOBEL       CLEAR     46  43  89 CALM      30.04S
PRAIRIE DU CHI PTCLDY    50  43  78 CALM      30.03F
PLATTEVILLE    PTCLDY    55  44  65 N7        30.03S
$$

WIZ056-057-062-063-064-067-068-181000-
SOUTH CENTRAL WISCONSIN

CITY           SKY/WX    TMP DP  RH WIND       PRES   REMARKS
REEDSBURG      CLEAR     48  46  93 CALM      30.04S
BARABOO/DELLS  CLEAR     46  41  82 S5        30.05R
LONE ROCK      CLEAR     45  41  86 CALM      30.04R
MINERAL POINT  PTCLDY    61  39  44 N7        30.04S
MADISON        CLEAR     50  44  80 CALM      30.03R
MIDDLETON      CLEAR     49  43  82 CALM      30.04S
WATERTOWN      CLEAR     45  44  97 CALM      30.03R
MONROE         PTCLDY    63  45  51 N6        30.03R
JANESVILLE     PTCLDY    50  45  81 CALM      30.02R
$$

WIZ051-052-058>065-066-070>072-181000-
SOUTHEAST WISCONSIN

CITY           SKY/WX    TMP DP  RH WIND       PRES   REMARKS
MILWAUKEE      PTCLDY    55  43  63 NW6       30.02R
WAUKESHA       CLEAR     48  43  81 NW3       30.04R
MILWAUKEE/TIMM PTCLDY    52  41  66 CALM      30.03R
RACINE         PTCLDY    55  44  66 W9        30.02R
BURLINGTON     CLEAR     44  42  94 CALM      30.02R
KENOSHA        PTCLDY    51  45  79 W6        30.01R
FOND DU LAC    PTCLDY    45  40  82 SW3       30.03R
SHEBOYGAN      PTCLDY    54  42  64 W6        30.02R
WEST BEND      PTCLDY    46  41  81 CALM      30.03R
JUNEAU         CLEAR     50  42  75 CALM      30.04R
$$

LSZ147-162-181000-
LAKE SUPERIOR

STATION/POSITION TIME  TEMP    WIND        PRES    WAVE
                       AIR SEA DIR/SP/G            HT/PER
                 (UTC) (F)     (DEG/KT/KT) (MB)    (FT/S)
DEVILS ISLAND    0900   40      40/ 15/ 16 1023.3R
PORT WING        0840   44      60/ 13/ 19 1022.0R
SAXON HARBOR     0800   42      40/ 10/ 13 1021.0
$$

LMZ867-665-643>646-181000-
LAKE MICHIGAN

STATION/POSITION TIME  TEMP    WIND        PRES    WAVE
                       AIR SEA DIR/SP/G            HT/PER
                 (UTC) (F)     (DEG/KT/KT) (MB)    (FT/S)
CHAMBERS ISLAND  0800   43     330/  5/  9 1017.6R
NORTHPORT PIER   0800   42     310/ 11/ 15 1017.3R
SISTER BAY       0817   48      10/ 19/ 25   N/A
KEWAUNEE LAKESHO 0800   46      CALM  /  1 1015.1R
SHEBOYGAN LAKESH 0900   59     310/  6/  7 1017.0R
PORT WASHINGTON  0840   59     300/  8/ 10 1016.9R
MILWAUKEE LAKESH 0900   58     320/  7/  9   N/A
KENOSHA   LAKESH 0900   59     300/  7/ 12 1016.3R
$$

TC  - TEMPERATURE IN CELSIUS
VSB - VISIBILITY IN STATUTE MILES
WCI - WIND CHILL INDEX
HX  - HEAT INDEX




USA.gov is the U.S. government's official web portal to all federal, state and local government web resources and services.